Location: Chandrammap?lem
(16.9200°N, 81.0051°E)
Time: 02:35:08
(UTC+00:00)

Meteor 1-27 Rocket - Pass Details

Date: 29 May 2024
Orbit: 829 x 909 km, 81.3° (Epoch: 21 June)

Event Time Altitude Azimuth Distance (km) Brightness Sun altitude
Exits shadow 15:05:11 47° 54° (NE) 1,090 4.1 -26.0°
Drops below altitude 10° 15:09:26 10° 17° (NNE) 2,433 6.3 -26.8°
Sets 15:11:53 0° 13° (NNE) 3,372 7.1 -27.3°
